Location: lozzo di cadore
(46.4899°N, 12.4508°E)
Time: 13:14:02
(UTC+02:00)

Envisat - Pass Details

Date: 02 May 2025
Orbit: 761 x 763 km, 98.3° (Epoch: 14 May)

Event Time Altitude Azimuth Distance (km) Brightness Sun altitude
Rises 02:53:12 0° 28° (NNE) 3,233 7.7 -23.7°
Reaches altitude 10° 02:56:15 10° 47° (NE) 2,301 6.4 -23.4°
Maximum altitude 02:59:41 18° 90° (E) 1,799 5.2 -23.1°
Drops below altitude 10° 03:03:06 10° 133° (SE) 2,289 5.3 -22.8°
Enters shadow 03:03:26 - 136° (SE) 2,377 5.4 -22.8°
